FW6260 Weather Reports


Display with metric or nautical units.
time (UTC)temp
F
wind
direction
speed
MPH
gust
MPH
rain 1hr
in
rain 24hr
in
rain mn
in
humidity
%
barometer
mb
20260831090021 67 149 3.0 13.0 0.00 0.29 0.29 79
20260831083052 67 155 1.0 7.0 0.00 0.29 0.29 83
20260831080022 66 241 2.0 10.0 0.00 0.29 0.29 86
20260831073112 65 158 2.0 7.0 0.00 0.29 0.29 88
20260831070023 63 265 3.0 13.0 0.01 0.29 0.29 91
20260831063054 62 192 1.0 7.0 0.01 0.29 0.29 95
20260831060023 62 152 0.0 4.0 0.00 0.28 0.28 96
20260831053054 61 149 1.0 4.0 0.00 0.28 0.28 97
20260831050024 60 294 0.0 7.0 0.00 0.28 0.28 98
20260831043055 61 144 0.0 2.0 0.00 0.28 0.28 97
20260831040044 61 147 1.0 3.0 0.02 0.28 0.28 96
20260831033056 61 137 1.0 3.0 0.28 0.28 0.28 95
20260831030026 62 179 2.0 9.0 0.26 0.26 0.26 92
20260831023057 58 243 1.0 11.0 0.00 0.00 0.00 97
20260831020027 58 134 0.0 3.0 0.00 0.00 0.00 97
20260831013058 58 131 1.0 3.0 0.00 0.00 0.00 97
20260831010028 58 143 1.0 4.0 0.00 0.00 0.00 96
20260831003059 58 146 0.0 3.0 0.00 0.00 0.00 96
20260831000029 59 139 1.0 3.0 0.00 0.00 0.00 96
20260830233120 60 141 1.0 3.0 0.00 0.00 0.00 95
20260830230030 60 147 0.0 3.0 0.00 0.00 0.00 94
20260830223101 60 141 0.0 2.0 0.00 0.00 0.00 94
20260830220031 61 148 0.0 2.0 0.00 0.00 0.00 93
20260830213102 61 118 0.0 1.0 0.00 0.00 0.00 93
20260830210032 62 129 0.0 1.0 0.00 0.00 0.00 91
20260830203103 62 0.0 0.0 0.00 0.00 0.00 90
20260830200033 64 0.0 0.0 0.00 0.00 0.00 87
20260830193104 66 0.0 0.0 0.00 0.00 0.00 83
20260830190035 68 0.0 1.0 0.00 0.00 0.00 79
20260830183105 70 163 0.0 1.0 0.00 0.00 0.00 74
20260830180036 71 138 0.0 2.0 0.00 0.00 0.00 72
20260830173112 74 173 0.0 3.0 0.00 0.00 0.00 67
20260830170116 76 218 1.0 3.0 0.00 0.00 0.00 63
20260830163107 76 172 1.0 6.0 0.00 0.00 0.00 61
20260830160037 76 226 2.0 4.0 0.00 0.00 0.00 61
20260830153108 78 210 2.0 6.0 0.00 0.00 0.00 59
20260830150058 78 245 2.0 7.0 0.00 0.00 0.00 58
20260830143109 79 246 2.0 8.0 0.00 0.00 0.00 56
20260830140039 78 209 2.0 8.0 0.00 0.00 0.00 57
20260830133111 78 238 2.0 10.0 0.00 0.00 0.00 58
20260830130039 78 215 2.0 9.0 0.00 0.00 0.00 58
20260830123110 76 234 2.0 9.0 0.00 0.00 0.00 59
20260830120040 76 229 2.0 8.0 0.00 0.00 0.00 59
20260830113110 76 170 2.0 8.0 0.00 0.00 0.00 59
20260830110040 75 200 2.0 8.0 0.00 0.00 0.00 60
20260830103231 74 214 2.0 8.0 0.00 0.00 0.00 60
20260830093133 74 242 2.0 10.0 0.00 0.00 0.00 61